Location: Unspecified
(44.0704°N, 88.6889°W)
Time: 21:01:27
(UTC+02:00)

A-11 Canister half - Visible Passes

Search period start: 17 June 2019 00:00
Search period end: 27 June 2019 00:00
Orbit: 1525 x 1684 km, 47.3° (Epoch: 16 June)

Date Brightness Start Highest point End Pass type
(mag) Time Alt. Az. Time Alt. Az. Time Alt. Az.
20 Jun 10.1 11:25:07 10° SSW 11:33:12 33° SE 11:41:09 10° ENE visible
21 Jun 10.1 11:03:41 10° S 11:11:39 31° SE 11:19:27 10° ENE visible
22 Jun 10.1 10:42:17 10° S 10:50:06 30° SE 10:57:45 10° ENE visible
23 Jun 10.1 10:21:35 12° S 10:28:32 28° SE 10:36:03 10° ENE visible
24 Jun 10.1 10:01:03 15° S 10:06:59 27° SE 10:14:20 10° ENE visible
25 Jun 10.2 09:40:29 17° S 09:45:26 25° SE 09:52:36 10° E visible
26 Jun 10.2 09:19:51 18° SSE 09:23:54 24° SE 09:30:51 10° E visible
26 Jun 9.2 11:18:14 10° SW 11:27:40 67° SSE 11:36:53 10° ENE visible
